Weather History for KFSE - November, 2012

Change the Weather History Date:

Friday, November 16, 2012

  Actual Average Record
Temperature  
Mean Temperature 28 °F -  
Max Temperature 41 °F 36 °F 62 °F (2001)
Min Temperature 14 °F 19 °F -7 °F (1959)
Degree Days  
Heating Degree Days 38    
Moisture  
Dew Point 14 °F    
Average Humidity 59    
Maximum Humidity 93    
Minimum Humidity 31    
Precipitation  
Precipitation 0.00 in - - ()
Sea Level Pressure  
Sea Level Pressure 30.28 in    
Wind  
Wind Speed 8 mph (SSE)    
Max Wind Speed 21 mph    
Max Gust Speed 25 mph    
Visibility 10 miles    
Events      
Averages and records for this station are not official NWS values.
T = Trace of Precipitation, MM = Missing Value Source: NWS Daily Summary

Daily Weather History Graph

Daily Weather History Graph

Search for Another Location

Airport or City:

Trip Planner

Search our weather history database for the weather conditions in past years. The results will help you decide how hot, cold, wet, or windy it might be!

Date:

Astronomy

Nov. 16, 2012 Rise Set
Actual Time 7:30 AM CST 4:44 PM CST
Civil Twilight 6:56 AM CST 5:18 PM CST
Nautical Twilight 6:19 AM CST 5:56 PM CST
Astronomical Twilight 5:42 AM CST 6:32 PM CST
Moon 10:29 AM CST (11/16) 7:42 PM CST (11/16)
Length of Visible Light 10h 22m
Length of Day
9h 14m
Waxing Crescent, 12% of the Moon is Illuminated
Nov 16
Waxing Crescent
Nov 20
First Quarter
Nov 28
Full
Dec 6
Last Quarter
Dec 13
New

Hourly Weather History & Observations

Time (CST) Temp. Windchill Dew Point Humidity Pressure Visibility Wind Dir Wind Speed Gust Speed Precip Events Conditions
12:15 AM 15.8 °F - 12.2 °F 86% 30.46 in 10.0 mi Calm Calm - N/A   Clear
12:35 AM 15.8 °F - 12.2 °F 86% 30.45 in 10.0 mi Calm Calm - N/A   Clear
12:56 AM 15.8 °F - 12.2 °F 86% 30.45 in 10.0 mi Calm Calm - N/A   Clear
1:15 AM 15.8 °F - 12.2 °F 86% 30.45 in 10.0 mi Calm Calm - N/A   Clear
1:35 AM 14.0 °F - 10.4 °F 86% 30.44 in 10.0 mi Calm Calm - N/A   Clear
1:55 AM 15.8 °F - 12.2 °F 86% 30.44 in 10.0 mi Calm Calm - N/A   Clear
2:15 AM 15.8 °F - 12.2 °F 86% 30.43 in 10.0 mi Calm Calm - N/A   Clear
2:35 AM 17.6 °F 9.3 °F 14.0 °F 86% 30.43 in 10.0 mi SE 5.8 mph - N/A   Clear
2:56 AM 17.6 °F 9.3 °F 15.8 °F 93% 30.42 in 10.0 mi SSE 5.8 mph - N/A   Clear
3:15 AM 17.6 °F 9.3 °F 15.8 °F 93% 30.41 in 10.0 mi SSE 5.8 mph - N/A   Clear
3:35 AM 17.6 °F - 15.8 °F 93% 30.41 in 10.0 mi Calm Calm - N/A   Clear
3:55 AM 17.6 °F 10.7 °F 15.8 °F 93% 30.40 in 10.0 mi SE 4.6 mph - N/A   Clear
4:15 AM 17.6 °F 7.3 °F 15.8 °F 93% 30.39 in 10.0 mi SE 8.1 mph - N/A   Clear
4:35 AM 19.4 °F 10.4 °F 15.8 °F 86% 30.38 in 10.0 mi SE 6.9 mph - N/A   Clear
4:55 AM 19.4 °F 8.6 °F 15.8 °F 86% 30.38 in 10.0 mi SSE 9.2 mph - N/A   Clear
5:15 AM 19.4 °F 10.4 °F 15.8 °F 86% 30.37 in 10.0 mi SSE 6.9 mph - N/A   Clear
5:35 AM 17.6 °F 9.3 °F 10.4 °F 73% 30.37 in 10.0 mi SSE 5.8 mph - N/A   Clear
5:55 AM 17.6 °F 7.3 °F 8.6 °F 68% 30.37 in 10.0 mi SSE 8.1 mph - N/A   Clear
6:15 AM 19.4 °F 9.5 °F 8.6 °F 63% 30.36 in 10.0 mi SSE 8.1 mph - N/A   Clear
6:35 AM 17.6 °F 6.4 °F 10.4 °F 73% 30.36 in 10.0 mi SSE 9.2 mph - N/A   Clear
6:55 AM 17.6 °F 7.3 °F 10.4 °F 73% 30.36 in 10.0 mi SSE 8.1 mph - N/A   Clear
7:15 AM 17.6 °F 6.4 °F 10.4 °F 73% 30.36 in 10.0 mi South 9.2 mph - N/A   Clear
7:35 AM 17.6 °F 6.4 °F 12.2 °F 79% 30.36 in 10.0 mi South 9.2 mph - N/A   Clear
7:55 AM 17.6 °F 5.7 °F 12.2 °F 79% 30.36 in 10.0 mi South 10.4 mph - N/A   Clear
8:15 AM 21.2 °F 10.9 °F 12.2 °F 68% 30.37 in 10.0 mi South 9.2 mph - N/A   Clear
8:35 AM 21.2 °F 10.9 °F 12.2 °F 68% 30.37 in 10.0 mi South 9.2 mph - N/A   Clear
8:55 AM 23.0 °F 11.7 °F 14.0 °F 68% 30.37 in 10.0 mi South 11.5 mph - N/A   Clear
9:15 AM 24.8 °F 12.9 °F 14.0 °F 64% 30.37 in 10.0 mi South 13.8 mph - N/A   Clear
9:35 AM 26.6 °F 15.2 °F 15.8 °F 64% 30.37 in 10.0 mi South 13.8 mph - N/A   Clear
9:55 AM 26.6 °F 14.7 °F 15.8 °F 64% 30.36 in 10.0 mi South 15.0 mph - N/A   Clear
10:15 AM 30.2 °F 18.5 °F 15.8 °F 55% 30.35 in 10.0 mi South 17.3 mph - N/A   Clear
10:35 AM 30.2 °F 18.5 °F 14.0 °F 51% 30.34 in 10.0 mi SSE 17.3 mph 21.9 mph N/A   Clear
10:55 AM 32.0 °F 21.2 °F 12.2 °F 44% 30.35 in 10.0 mi South 16.1 mph - N/A   Clear
11:15 AM 33.8 °F 24.3 °F 14.0 °F 44% 30.35 in 10.0 mi South 13.8 mph - N/A   Clear
11:35 AM 33.8 °F 23.9 °F 14.0 °F 44% 30.32 in 10.0 mi SSE 15.0 mph - N/A   Clear
11:55 AM 35.6 °F 25.9 °F 14.0 °F 41% 30.31 in 10.0 mi SSE 16.1 mph - N/A   Clear
12:15 PM 37.4 °F 28.9 °F 15.8 °F 41% 30.30 in 10.0 mi SSE 13.8 mph - N/A   Clear
12:35 PM 37.4 °F 28.5 °F 12.2 °F 36% 30.29 in 10.0 mi South 15.0 mph - N/A   Clear
12:55 PM 39.2 °F 30.2 °F 12.2 °F 33% 30.28 in 10.0 mi SSE 17.3 mph - N/A   Clear
1:15 PM 39.2 °F 30.2 °F 12.2 °F 33% 30.26 in 10.0 mi SSE 17.3 mph 23.0 mph N/A   Clear
1:35 PM 41.0 °F 31.6 °F 12.2 °F 31% 30.25 in 10.0 mi SSE 20.7 mph - N/A   Clear
1:55 PM 39.2 °F 30.2 °F 10.4 °F 31% 30.24 in 10.0 mi SSE 17.3 mph 25.3 mph N/A   Clear
2:15 PM 39.2 °F 30.5 °F 12.2 °F 33% 30.23 in 10.0 mi SSE 16.1 mph - N/A   Clear
2:35 PM 41.0 °F 33.1 °F 12.2 °F 31% 30.21 in 10.0 mi SSE 15.0 mph - N/A   Clear
2:55 PM 41.0 °F 33.9 °F 12.2 °F 31% 30.21 in 10.0 mi SSE 12.7 mph 19.6 mph N/A   Clear
3:15 PM 41.0 °F 34.3 °F 19.4 °F 42% 30.20 in 10.0 mi SE 11.5 mph - N/A   Clear
3:35 PM 39.2 °F 31.2 °F 17.6 °F 42% 30.19 in 10.0 mi SE 13.8 mph 18.4 mph N/A   Clear
3:55 PM 39.2 °F 31.6 °F 15.8 °F 39% 30.19 in 10.0 mi SSE 12.7 mph 19.6 mph N/A   Clear
4:15 PM 37.4 °F 28.9 °F 15.8 °F 41% 30.17 in 10.0 mi SE 13.8 mph 23.0 mph N/A   Clear
4:35 PM 37.4 °F 28.2 °F 14.0 °F 38% 30.17 in 10.0 mi SE 16.1 mph 20.7 mph N/A   Clear
4:55 PM 35.6 °F 27.5 °F 14.0 °F 41% 30.16 in 10.0 mi SE 11.5 mph - N/A   Clear
5:15 PM 35.6 °F 27.5 °F 15.8 °F 44% 30.15 in 7.0 mi SE 11.5 mph 17.3 mph N/A   Clear
5:35 PM 35.6 °F 27.1 °F 12.2 °F 38% 30.15 in 10.0 mi SE 12.7 mph 19.6 mph N/A   Clear
5:55 PM 33.8 °F 24.3 °F 12.2 °F 41% 30.15 in 10.0 mi SE 13.8 mph 18.4 mph N/A   Clear
6:15 PM 33.8 °F 24.3 °F 12.2 °F 41% 30.15 in 10.0 mi SE 13.8 mph 19.6 mph N/A   Clear
6:35 PM 33.8 °F 24.3 °F 12.2 °F 41% 30.14 in 10.0 mi SE 13.8 mph 20.7 mph N/A   Clear
6:55 PM 33.8 °F 24.3 °F 12.2 °F 41% 30.14 in 10.0 mi SE 13.8 mph - N/A   Clear
7:15 PM 33.8 °F 25.3 °F 12.2 °F 41% 30.14 in 10.0 mi SSE 11.5 mph - N/A   Clear
7:34 PM 33.8 °F 23.5 °F 14.0 °F 44% 30.14 in 10.0 mi SSE 16.1 mph 20.7 mph N/A   Clear
7:55 PM 33.8 °F 23.9 °F 12.2 °F 41% 30.14 in 10.0 mi SSE 15.0 mph 20.7 mph N/A   Clear
8:15 PM 32.0 °F 21.6 °F 14.0 °F 48% 30.14 in 10.0 mi SSE 15.0 mph 20.7 mph N/A   Clear
8:35 PM 32.0 °F 22.5 °F 15.8 °F 51% 30.14 in 10.0 mi SSE 12.7 mph - N/A   Clear
8:55 PM 32.0 °F 22.1 °F 15.8 °F 51% 30.14 in 10.0 mi SSE 13.8 mph 18.4 mph N/A   Clear
9:15 PM 33.8 °F 23.5 °F 17.6 °F 52% 30.13 in 10.0 mi SSE 16.1 mph - N/A   Clear
9:35 PM 33.8 °F 23.5 °F 17.6 °F 52% 30.12 in 10.0 mi SSE 16.1 mph - N/A   Clear
9:55 PM 33.8 °F 23.2 °F 19.4 °F 56% 30.12 in 10.0 mi SSE 17.3 mph - N/A   Clear
10:15 PM 33.8 °F 23.2 °F 19.4 °F 56% 30.11 in 10.0 mi SSE 17.3 mph 21.9 mph N/A   Clear
10:35 PM 33.8 °F 23.5 °F 21.2 °F 60% 30.11 in 10.0 mi SSE 16.1 mph - N/A   Clear
10:55 PM 35.6 °F 26.2 °F 21.2 °F 56% 30.10 in 10.0 mi SSE 15.0 mph - N/A   Clear
11:15 PM 35.6 °F 26.2 °F 21.2 °F 56% 30.10 in 10.0 mi SSE 15.0 mph - N/A   Clear
11:35 PM 35.6 °F 26.6 °F 23.0 °F 60% 30.10 in 10.0 mi SSE 13.8 mph 20.7 mph N/A   Clear
11:55 PM 35.6 °F 26.2 °F 24.8 °F 65% 30.09 in 10.0 mi SSE 15.0 mph - N/A   Clear